GW4795 Weather Reports


time (UTC)temp
F
wind
direction
speed
knots
gust
knots
rain 1hr
in
rain 24hr
in
rain mn
in
humidity
%
barometer
mb
20260506034529 62 89 0.0 0.0 0.00 0.00 0.00 73 1015.7
20260506034006 62 89 0.0 0.0 0.00 0.00 0.00 73 1015.7
20260506033508 63 89 0.0 0.0 0.00 0.00 0.00 72 1015.7
20260506033026 63 89 0.0 0.0 0.00 0.00 0.00 72 1015.6
20260506032510 63 89 0.0 1.7 0.00 0.00 0.00 72 1015.6
20260506032011 63 89 0.0 1.7 0.00 0.00 0.00 71 1015.5
20260506031508 63 87 0.0 1.7 0.00 0.00 0.00 71 1015.5
20260506031004 64 91 0.0 1.7 0.00 0.00 0.00 70 1015.5
20260506030503 64 86 0.0 1.7 0.00 0.00 0.00 70 1015.3
20260506030010 64 79 0.0 1.7 0.00 0.00 0.00 70 1015.4
20260506025509 64 105 0.0 1.7 0.00 0.00 0.00 69 1015.4
20260506025006 64 37 0.0 2.6 0.00 0.00 0.00 69 1015.4
20260506024526 64 76 0.9 2.6 0.00 0.00 0.00 69 1015.4
20260506024010 64 99 0.0 2.6 0.00 0.00 0.00 68 1015.4
20260506023509 64 102 0.0 2.6 0.00 0.00 0.00 68 1015.3
20260506023020 64 52 0.0 2.6 0.00 0.00 0.00 68 1015.3
20260506022507 64 88 0.9 2.6 0.00 0.00 0.00 68 1015.3
20260506022008 64 34 0.9 2.6 0.00 0.00 0.00 68 1015.3
20260506021540 64 82 0.9 1.7 0.00 0.00 0.00 68 1015.3
20260506021007 65 88 0.0 1.7 0.00 0.00 0.00 68 1015.3
20260506020504 64 44 0.9 5.2 0.00 0.00 0.00 68 1015.3
20260506020010 65 94 0.9 5.2 0.00 0.00 0.00 67 1015.3
20260506015505 65 94 0.9 3.5 0.00 0.00 0.00 68 1015.2
20260506015005 65 49 0.0 4.3 0.00 0.00 0.00 68 1015.3
20260506014522 65 74 0.9 4.3 0.00 0.00 0.00 68 1015.3
20260506014004 65 150 0.9 6.1 0.00 0.00 0.00 67 1015.2
20260506013506 65 27 1.7 6.1 0.00 0.00 0.00 67 1015.3
20260506013021 65 142 0.9 3.5 0.00 0.00 0.00 67 1015.3
20260506012507 65 153 1.7 3.5 0.00 0.00 0.00 67 1015.3
20260506012007 65 162 0.9 3.5 0.00 0.00 0.00 68 1015.3
20260506011526 65 69 1.7 3.5 0.00 0.00 0.00 68 1015.3
20260506011007 65 77 0.0 2.6 0.00 0.00 0.00 68 1015.3
20260506010508 65 101 0.9 2.6 0.00 0.00 0.00 67 1015.4
20260506010032 65 96 0.9 3.5 0.00 0.00 0.00 68 1015.5
20260506005509 65 35 0.9 3.5 0.00 0.00 0.00 68 1015.5
20260506005006 65 95 1.7 3.5 0.00 0.00 0.00 68 1015.5
20260506004512 65 175 0.0 6.1 0.00 0.00 0.00 67 1015.5
20260506004003 65 129 1.7 6.1 0.00 0.00 0.00 68 1015.5
20260506003507 65 136 1.7 4.3 0.00 0.00 0.00 67 1015.5
20260506003020 65 84 0.9 5.2 0.00 0.00 0.00 67 1015.5
20260506002508 65 9 1.7 5.2 0.00 0.00 0.00 67 1015.6
20260506002009 65 114 1.7 3.5 0.00 0.00 0.00 67 1015.6
20260506001522 65 92 0.9 5.2 0.00 0.00 0.00 67 1015.7
20260506001009 65 91 0.9 5.2 0.00 0.00 0.00 67 1015.8
20260506000510 65 102 0.9 5.2 0.00 0.00 0.00 68 1015.8
20260506000024 65 58 0.9 5.2 0.00 0.00 0.00 67 1015.9
20260505235508 65 90 1.7 4.3 0.00 0.00 0.00 67 1016.0
20260505235012 65 292 1.7 4.3 0.00 0.00 0.00 67 1016.0
20260505234539 65 113 0.9 3.5 0.00 0.00 0.00 68 1016.1
20260505234002 65 126 0.9 5.2 0.00 0.00 0.00 68 1016.1
20260505233509 64 21 1.7 5.2 0.00 0.00 0.00 68 1016.1
20260505233016 64 140 1.7 6.1 0.00 0.00 0.00 70 1016.1
20260505232507 64 151 0.9 6.1 0.00 0.00 0.00 70 1016.2
20260505232006 63 88 1.7 5.2 0.00 0.00 0.00 70 1016.2
20260505231526 63 79 1.7 5.2 0.00 0.00 0.00 69 1016.3
20260505231004 63 87 1.7 5.2 0.00 0.00 0.00 69 1016.3
20260505230503 63 148 0.9 1.7 0.00 0.00 0.00 71 1016.4
20260505230007 63 42 0.9 5.2 0.00 0.00 0.00 71 1016.4
20260505225503 63 166 0.0 5.2 0.00 0.00 0.00 71 1016.4
20260505225003 63 84 1.7 5.2 0.00 0.00 0.00 71 1016.4
20260505224517 63 121 0.0 1.7 0.00 0.00 0.00 73 1016.4
20260505224003 62 142 0.9 2.6 0.00 0.00 0.00 71 1016.5
20260505223505 62 140 0.9 3.5 0.00 0.00 0.00 73 1016.6
20260505223017 62 69 0.9 4.3 0.00 0.00 0.00 73 1016.6
20260505222505 62 148 1.7 4.3 0.00 0.00 0.00 73 1016.6
20260505222008 62 205 1.7 5.2 0.00 0.00 0.00 73 1016.6
20260505221520 61 167 2.6 5.2 0.00 0.00 0.00 73 1016.7
20260505221002 61 116 1.7 3.5 0.00 0.00 0.00 73 1016.7
20260505220503 61 137 0.9 4.3 0.00 0.00 0.00 74 1016.8
20260505220003 61 71 0.9 4.3 0.00 0.00 0.00 73 1016.8
20260505215505 61 200 1.7 5.2 0.00 0.00 0.00 74 1016.8
20260505215003 61 119 1.7 5.2 0.00 0.00 0.00 74 1016.8
20260505214507 61 94 1.7 4.3 0.00 0.00 0.00 73 1016.8
20260505214003 61 51 0.9 5.2 0.00 0.00 0.00 73 1016.8
20260505213505 61 119 0.9 5.2 0.00 0.00 0.00 74 1016.9
20260505213011 61 139 1.7 4.3 0.00 0.00 0.00 74 1016.8
20260505212510 61 172 1.7 4.3 0.00 0.00 0.00 74 1016.9
20260505212006 61 147 0.9 6.1 0.00 0.00 0.00 74 1016.9
20260505211533 61 139 0.9 6.1 0.00 0.00 0.00 74 1016.9
20260505211007 61 188 2.6 5.2 0.00 0.00 0.00 74 1017.0
20260505210509 61 105 0.9 5.2 0.00 0.00 0.00 75 1017.0
20260505210024 60 167 1.7 4.3 0.00 0.00 0.00 75 1017.0
20260505205502 60 147 0.9 2.6 0.00 0.00 0.00 75 1017.0
20260505205004 60 132 0.9 2.6 0.00 0.00 0.00 74 1017.0
20260505204508 60 145 0.9 5.2 0.00 0.00 0.00 74 1017.0
20260505204003 60 175 3.5 5.2 0.00 0.00 0.00 75 1017.0
20260505203503 60 68 0.9 4.3 0.00 0.00 0.00 75 1017.0
20260505203012 60 180 1.7 4.3 0.00 0.00 0.00 76 1017.0
20260505202503 60 129 1.7 2.6 0.00 0.00 0.00 75 1017.0
20260505202005 60 139 0.0 3.5 0.00 0.00 0.00 76 1017.0
20260505201516 60 196 0.9 3.5 0.00 0.00 0.00 76 1017.0
20260505201008 60 165 2.6 3.5 0.00 0.00 0.00 76 1017.0
20260505200508 60 136 0.9 3.5 0.00 0.00 0.00 75 1017.0
20260505200019 60 123 1.7 4.3 0.00 0.00 0.00 76 1017.1
20260505195506 60 133 0.9 4.3 0.00 0.00 0.00 76 1017.0
20260505195005 60 182 0.9 4.3 0.00 0.00 0.00 77 1017.0
20260505194506 60 142 0.9 4.3 0.00 0.00 0.00 76 1017.0
20260505194002 60 147 1.7 4.3 0.00 0.00 0.00 76 1017.0
20260505193503 60 34 0.9 4.3 0.00 0.00 0.00 76 1017.0
20260505193010 60 98 0.0 5.2 0.00 0.00 0.00 77 1017.0
20260505192503 59 169 1.7 5.2 0.00 0.00 0.00 77 1017.0
20260505192006 59 184 0.9 5.2 0.00 0.00 0.00 77 1016.9
20260505191514 59 167 0.9 5.2 0.00 0.00 0.00 77 1016.9
20260505191008 59 140 0.9 3.5 0.00 0.00 0.00 78 1016.9
20260505190507 59 157 0.9 3.5 0.00 0.00 0.00 77 1016.9
20260505190020 59 145 1.7 3.5 0.00 0.00 0.00 77 1016.9
20260505185507 59 148 0.9 3.5 0.00 0.00 0.00 78 1016.8
20260505185008 59 147 0.9 3.5 0.00 0.00 0.00 78 1016.8
20260505184527 59 136 1.7 3.5 0.00 0.00 0.00 78 1016.8
20260505184012 59 179 0.9 3.5 0.00 0.00 0.00 79 1016.8
20260505183509 59 77 0.9 3.5 0.00 0.00 0.00 79 1016.8
20260505183007 59 153 1.7 6.1 0.00 0.00 0.00 79 1016.8
20260505182503 59 153 0.9 6.1 0.00 0.00 0.00 78 1016.8
20260505182003 59 152 3.5 6.1 0.00 0.00 0.00 78 1016.7
20260505181512 59 206 1.7 4.3 0.00 0.00 0.00 79 1016.7
20260505181007 59 188 1.7 4.3 0.00 0.00 0.00 79 1016.7
20260505180504 58 161 0.9 4.3 0.00 0.00 0.00 79 1016.7
20260505180014 58 146 1.7 5.2 0.00 0.00 0.00 79 1016.6
20260505175507 58 163 1.7 5.2 0.00 0.00 0.00 79 1016.7
20260505175006 58 148 2.6 4.3 0.00 0.00 0.00 80 1016.7
20260505174522 58 182 0.9 2.6 0.00 0.00 0.00 80 1016.7
20260505174012 58 176 0.9 4.3 0.00 0.00 0.00 79 1016.7
20260505173508 58 118 0.0 4.3 0.00 0.00 0.00 80 1016.6
20260505173024 58 171 0.9 3.5 0.00 0.00 0.00 80 1016.7
20260505172510 58 146 0.9 2.6 0.00 0.00 0.00 80 1016.7
20260505172004 58 146 0.9 1.7 0.00 0.00 0.00 80 1016.6
20260505171508 58 210 0.0 1.7 0.00 0.00 0.00 81 1016.7
20260505171004 58 146 0.0 1.7 0.00 0.00 0.00 81 1016.6
20260505170506 58 83 0.9 1.7 0.00 0.00 0.00 81 1016.6
20260505170016 57 150 0.9 1.7 0.00 0.00 0.00 82 1016.7
20260505165509 57 140 0.0 3.5 0.00 0.00 0.00 81 1016.7
20260505165009 57 154 0.9 3.5 0.00 0.00 0.00 82 1016.7
20260505164525 57 171 1.7 3.5 0.00 0.00 0.00 83 1016.6
20260505164009 57 144 0.9 2.6 0.00 0.00 0.00 82 1016.6
20260505163508 57 165 0.0 2.6 0.00 0.00 0.00 82 1016.6
20260505163027 57 148 0.9 3.5 0.00 0.00 0.00 82 1016.5
20260505162510 57 163 0.9 3.5 0.00 0.00 0.00 83 1016.6
20260505162010 57 160 0.0 1.7 0.00 0.00 0.00 83 1016.6
20260505161526 57 181 0.0 2.6 0.00 0.00 0.00 83 1016.5
20260505161006 57 96 0.0 2.6 0.00 0.00 0.00 83 1016.5
20260505160506 57 106 0.0 1.7 0.00 0.00 0.00 84 1016.5
20260505153025 56 99 0.9 2.6 0.00 0.00 0.00 83 1016.5
20260505152511 56 94 0.9 2.6 0.00 0.00 0.00 83 1016.4
20260505152011 56 65 0.9 2.6 0.00 0.00 0.00 83 1016.3
20260505151533 56 99 0.9 2.6 0.00 0.00 0.00 83 1016.3
20260505151009 56 88 0.9 2.6 0.00 0.00 0.00 83 1016.2
20260505150509 56 87 0.9 2.6 0.00 0.00 0.00 84 1016.2
20260505140503 55 82 0.0 1.7 0.00 0.00 0.00 85 1015.7
20260505125006 54 158 1.7 5.2 0.00 0.00 0.00 86 1014.9
20260505124514 54 163 1.7 5.2 0.00 0.00 0.00 86 1014.9
20260505124006 54 164 1.7 5.2 0.00 0.00 0.00 86 1014.9
20260505123505 54 149 0.9 4.3 0.00 0.00 0.00 86 1014.8
20260505123015 54 155 1.7 4.3 0.00 0.00 0.00 87 1014.7
20260505122507 54 138 0.9 2.6 0.00 0.00 0.00 87 1014.7
20260505122007 54 150 0.9 1.7 0.00 0.00 0.00 87 1014.7
20260505121522 54 117 0.0 1.7 0.00 0.00 0.00 87 1014.7
20260505121003 54 65 0.9 1.7 0.00 0.00 0.00 87 1014.6
20260505120503 54 144 0.0 1.7 0.00 0.00 0.00 87 1014.6
20260505120010 53 93 0.9 1.7 0.00 0.00 0.00 87 1014.6
20260505115504 53 81 0.0 1.7 0.00 0.00 0.00 87 1014.6
20260505115002 53 81 0.0 1.7 0.00 0.00 0.00 87 1014.5
20260505114508 53 66 0.9 1.7 0.00 0.00 0.00 88 1014.5
20260505114007 53 85 0.9 2.6 0.00 0.00 0.00 88 1014.5
20260505113509 53 107 0.9 2.6 0.00 0.00 0.00 88 1014.4
20260505113026 53 88 0.0 1.7 0.00 0.00 0.00 88 1014.4
20260505112507 53 65 0.0 1.7 0.00 0.00 0.00 88 1014.4
20260505112008 53 80 0.0 1.7 0.00 0.00 0.00 88 1014.4
20260505111536 53 74 0.0 1.7 0.00 0.00 0.00 88 1014.3
20260505111007 53 135 0.0 1.7 0.00 0.00 0.00 88 1014.3
20260505110507 53 79 0.0 1.7 0.00 0.00 0.00 87 1014.3
20260505102007 53 108 0.0 0.0 0.00 0.00 0.00 86 1013.9
20260505101526 53 108 0.0 1.7 0.00 0.00 0.00 86 1013.9
20260505101007 53 108 0.0 1.7 0.00 0.00 0.00 86 1013.9
20260505100507 53 108 0.0 1.7 0.00 0.00 0.00 86 1013.8
20260505100024 53 142 0.0 1.7 0.00 0.00 0.00 86 1013.8
20260505095508 53 142 0.0 1.7 0.00 0.00 0.00 86 1013.8
20260505095010 53 142 0.0 1.7 0.00 0.00 0.00 87 1013.8
20260505094505 53 118 0.0 1.7 0.00 0.00 0.00 87 1013.7
20260505094003 54 99 0.0 1.7 0.00 0.00 0.00 85 1013.7
20260505093504 54 99 0.0 1.7 0.00 0.00 0.00 85 1013.7
20260505093008 54 95 0.0 1.7 0.00 0.00 0.00 84 1013.7
20260505092504 54 95 0.0 1.7 0.00 0.00 0.00 84 1013.6
20260505092004 54 96 0.0 1.7 0.00 0.00 0.00 84 1013.6
20260505091514 54 84 0.0 1.7 0.00 0.00 0.00 84 1013.6
20260505091007 54 88 0.0 1.7 0.00 0.00 0.00 84 1013.6
20260505090508 54 90 0.0 1.7 0.00 0.00 0.00 83 1013.5
20260505090023 54 89 0.0 1.7 0.00 0.00 0.00 83 1013.5
20260505085509 55 92 0.0 1.7 0.00 0.00 0.00 82 1013.6
20260505085008 55 298 0.0 1.7 0.00 0.00 0.00 81 1013.5
20260505084529 55 298 0.0 1.7 0.00 0.00 0.00 81 1013.5
20260505084006 55 298 0.0 1.7 0.00 0.00 0.00 81 1013.3
20260505083510 55 298 0.0 1.7 0.00 0.00 0.00 80 1013.2
20260505083006 55 298 0.0 0.0 0.00 0.00 0.00 81 1013.1
20260505082504 55 298 0.0 1.7 0.00 0.00 0.00 80 1013.1
20260505082006 56 298 0.0 1.7 0.00 0.00 0.00 80 1013.1
20260505081512 56 298 0.0 1.7 0.00 0.00 0.00 79 1013.0
20260505081004 56 298 0.0 1.7 0.00 0.00 0.00 79 1013.0
20260505080507 56 298 0.0 1.7 0.00 0.00 0.00 79 1013.0
20260505080026 56 298 0.0 1.7 0.00 0.00 0.00 78 1013.0
20260505075507 56 298 0.0 1.7 0.00 0.00 0.00 78 1013.0
20260505075008 56 298 0.0 1.7 0.00 0.00 0.00 78 1013.0
20260505074524 57 298 0.0 0.9 0.00 0.00 0.00 78 1012.9
20260505074007 57 298 0.0 1.7 0.00 0.00 0.00 78 1012.9
20260505073508 57 298 0.0 1.7 0.00 0.00 0.00 78 1012.8
20260505073026 57 298 0.0 1.7 0.00 0.00 0.00 78 1012.7
20260505072508 57 298 0.0 1.7 0.00 0.00 0.00 79 1012.7
20260505072011 57 287 0.0 0.9 0.00 0.00 0.00 79 1012.6
20260505071508 57 31 0.0 0.0 0.00 0.00 0.00 79 1012.6
20260505071005 57 31 0.0 1.7 0.00 0.00 0.00 80 1012.5
20260505070506 57 31 0.0 1.7 0.00 0.00 0.00 79 1012.3
20260505070023 58 31 0.0 1.7 0.00 0.00 0.00 80 1012.2
20260505065507 58 317 0.0 1.7 0.00 0.00 0.00 81 1012.2
20260505065006 58 311 0.0 1.7 0.00 0.00 0.00 80 1012.1
20260505064520 58 311 0.0 1.7 0.00 0.00 0.00 79 1011.9
20260505064008 58 315 0.9 0.9 0.00 0.00 0.00 78 1011.9
20260505063508 59 300 0.0 0.9 0.00 0.00 0.00 78 1011.8
20260505063024 59 300 0.0 1.7 0.00 0.00 0.00 77 1011.9
20260505062511 59 300 0.9 1.7 0.00 0.00 0.00 77 1011.9
20260505062010 59 311 0.0 1.7 0.00 0.00 0.00 76 1011.8
20260505061526 59 311 0.0 1.7 0.00 0.00 0.00 75 1011.8
20260505061009 59 311 0.0 1.7 0.00 0.00 0.00 74 1011.8
20260505060504 59 311 0.0 1.7 0.00 0.00 0.00 73 1011.8
20260505060016 60 311 0.0 1.7 0.00 0.00 0.00 73 1011.7
20260505055506 60 311 0.0 1.7 0.00 0.00 0.00 72 1011.7
20260505055009 60 311 0.0 1.7 0.00 0.00 0.00 72 1011.6
20260505054524 60 27 0.0 1.7 0.00 0.00 0.00 72 1011.5
20260505054008 60 27 0.0 1.7 0.00 0.00 0.00 71 1011.6
20260505053511 61 27 0.0 1.7 0.00 0.00 0.00 71 1011.6
20260505053026 61 27 0.0 1.7 0.00 0.00 0.00 71 1011.5
20260505052509 61 112 0.0 1.7 0.00 0.00 0.00 70 1011.4
20260505052009 61 102 0.0 1.7 0.00 0.00 0.00 70 1011.4
20260505051526 61 102 0.0 1.7 0.00 0.00 0.00 70 1011.4
20260505051005 62 102 0.0 1.7 0.00 0.00 0.00 69 1011.3
20260505050507 62 102 0.0 0.9 0.00 0.00 0.00 68 1011.3
20260505041506 64 360 0.0 1.7 0.00 0.00 0.00 63 1011.0
20260505041003 65 348 0.0 1.7 0.00 0.00 0.00 62 1010.9
20260505040504 65 237 0.0 1.7 0.00 0.00 0.00 62 1010.9
20260505040018 65 225 0.0 0.9 0.00 0.00 0.00 62 1010.8
20260505035511 65 225 0.0 1.7 0.00 0.00 0.00 61 1010.6
20260505035004 66 224 0.9 1.7 0.00 0.00 0.00 61 1010.4